Flag for Canada Weather past 2 weeks in Waterloo, Ontario, Canada

Now
16 °F

Passing clouds.


Feels Like: 3 °F
Forecast: 8 / 16 °F
Wind: 12 mph from Northeast

Location: Waterloo Well

Current Time: Jan 26, 2015 at 2:14:20 PM

Latest Report: Jan 26, 2015 at 1:00 PM


Visibility: 9 mi

Pressure: 29.97 "Hg

Humidity: 67%

Dew point: 7 °F

Location of WaterlooLocation

Historic Weather in Waterloo — Graph

°F

Waterloo temperature yesterday

Maximum temperature yesterday: 27 °F (at 12:00 AM)
Minimum temperature yesterday: 7 °F (at 8:00 AM)
Average temperature yesterday: 15 °F

Past Weeks' High & Low Weather Summary

 TemperatureHumidityPressure
High41 °F (Jan 17, 11:00 PM)100% (Jan 12, 6:01 AM)30.82 "Hg (Jan 12, 6:01 AM)
Low-11 °F (Jan 13, 8:00 AM)38% (Jan 25, 3:00 PM)29.49 "Hg (Jan 24, 2:59 PM)
Average18 °F81%30.08 "Hg
* Reported Jan 11 1:00 PM — Jan 26 1:00 PM, Waterloo, Weather by CustomWeather, © 2014

Note: Actual official high and low records may vary slightly from our data, if they occured in-between our weather recording intervals... More about our weather records

Advertising

Waterloo weather history for previous 24 hours

 ConditionsComfort  
Time TempWeatherWind HumidityBarometerVisibility
1:00 PM
Jan 26
16 °FPassing clouds.12 mph67%29.97 "Hg9 mi
12:00 PM14 °FLight snow. Sunny.14 mph73%29.98 "Hg9 mi
11:00 AM12 °FLight snow. Sunny.16 mph73%30.01 "Hg9 mi
10:00 AM9 °FSunny.13 mph78%30.00 "Hg9 mi
9:00 AM7 °FLight snow. Sunny.13 mph85%30.00 "Hg9 mi
8:00 AM5 °FLight snow. Passing clouds.9 mph85%30.00 "Hg9 mi
7:00 AM7 °FLight snow. Clear.10 mph85%29.99 "Hg9 mi
6:00 AM9 °FLight snow. Passing clouds.12 mph85%29.99 "Hg9 mi
5:00 AM9 °FLight snow. Overcast.13 mph85%30.00 "Hg9 mi
4:00 AM9 °FLight snow. Overcast.10 mph78%30.01 "Hg9 mi
3:00 AM7 °FPassing clouds.8 mph72%30.02 "Hg9 mi
2:56 AM7 °FPassing clouds.8 mph72%30.02 "Hg9 mi
2:00 AM7 °FPassing clouds.8 mph72%30.04 "Hg9 mi
1:00 AM7 °FPassing clouds.7 mph72%30.06 "Hg9 mi
12:00 AM7 °FPassing clouds.6 mph72%30.07 "Hg9 mi
11:00 PM
Jan 25
7 °FPassing clouds.7 mph78%30.06 "Hg9 mi
10:00 PM7 °FPassing clouds.7 mph78%30.07 "Hg9 mi
9:00 PM9 °FPassing clouds.5 mph78%30.07 "Hg9 mi
8:00 PM10 °FPassing clouds.7 mph56%30.07 "Hg9 mi
7:00 PM12 °FOvercast.8 mph57%30.06 "Hg9 mi
6:00 PM12 °FMostly cloudy.7 mph57%30.03 "Hg9 mi
5:00 PM14 °FSunny.9 mph52%30.00 "Hg9 mi
4:00 PM16 °FSunny.9 mph45%29.98 "Hg9 mi
3:00 PM18 °FSunny.9 mph38%29.96 "Hg9 mi
2:00 PM16 °FSunny.7 mph45%29.96 "Hg9 mi
Weather by CustomWeather, © 2014

See weather overviewHow to use our weather pages